Location: ?astrovice
(49.6513°N, 14.9287°E)
Time: 03:45:23
(UTC+00:00)

Cosmos 1656 - Pass Details

Date: 09 April 2020
Orbit: 798 x 849 km, 71.1° (Epoch: 04 June)

Event Time Altitude Azimuth Distance (km) Brightness Sun altitude
Rises 19:40:53 0° 332° (NNW) 3,422 8.1 -17.7°
Reaches altitude 10° 19:43:22 10° 334° (NNW) 2,480 7.1 -18.1°
Maximum altitude 19:49:05 73° 59° (ENE) 883 3.7 -18.8°
Enters shadow 19:51:32 35° 136° (SE) 1,330 4.2 -19.1°
